User: anonymous   Login
Location: Unspecified
(0.0000°N, 0.0000°E)
Time: 18:07:21
(UTC+00:00)
Language:

STARLINK-36100 - Orbit

View from above orbital plane
View from above orbital plane
View from above satellite
View from above satellite

Ground track
Ground track

The orbit is defined by the following mean orbital elements,

1 66942U          26145.50003470 +.00000000 +00000-0 +21195-1 0 00006
2 66942  53.1604   1.4486 0002606  30.4666 195.3572 15.33582660    01
Epoch (UTC): 25 May 2026 12:00:02
Eccentricity: 0.0002606
inclination: 53.1604°
perigee height: 463 km
apogee height: 467 km
right ascension of ascending node: 1.4486°
argument of perigee: 30.4666°
revolutions per day: 15.33582660
mean anomaly at epoch: 195.3572°

The dashed part of the orbit path shows where the satellite is in the earth's shadow,  

DLR